When you browse on this site, cookies collect data to enhance your experience and personalize the content and advertising you see.
Visit our Privacy Policy to learn more. By continuing to use the site, you agree to this use of cookies and data.
  • In Hungary
  • List of Countries
  • For 7 days
  • Water Temperature
  • Satellite Maps
  • Weather Map
  • News
  • Weather Widgets
  • user-avatar
    Login

    Hourly Weather Moyomamba

    Today, 18 June, Tuesday

    Time Temperature Precipitation Wind Pressure Humidity
    00:00 +17°C° 0 mm 0 mps 684 mmHg 95%
    01:00 +17°C° 0 mm 0 mps 684 mmHg 95%
    02:00 +17°C° 0 mm 0 mps 683 mmHg 94%
    03:00 +17°C° 0 mm 0 mps 683 mmHg 94%
    04:00 +17°C° 0 mm 0 mps 683 mmHg 94%
    05:00 +17°C° 0 mm 0 mps 683 mmHg 93%
    06:00 +18°C° 0 mm 0 mps 684 mmHg 92%
    07:00 +18°C° 0 mm 0 mps 684 mmHg 91%
    08:00 +20°C° 0 mm 0 mps 685 mmHg 82%
    09:00 +23°C° 0 mm 0 mps 685 mmHg 72%
    10:00 +27°C° 0 mm 1 mps 686 mmHg 63%
    11:00 +28°C° 0.1 mm 1 mps 685 mmHg 59%
    12:00 +29°C° 0.1 mm 1 mps 685 mmHg 56%
    13:00 +30°C° 0.1 mm 1 mps 684 mmHg 52%
    14:00 +29°C° 0.3 mm 1 mps 683 mmHg 57%
    15:00 +29°C° 0.3 mm 1 mps 682 mmHg 62%
    16:00 +28°C° 0.3 mm 1 mps 682 mmHg 66%
    17:00 +26°C° 0.1 mm 1 mps 682 mmHg 75%
    18:00 +22°C° 0.1 mm 0 mps 682 mmHg 84%
    19:00 +20°C° 0.1 mm 0 mps 681 mmHg 93%
    20:00 +19°C° 0 mm 0 mps 682 mmHg 94%
    21:00 +19°C° 0 mm 0 mps 683 mmHg 95%
    22:00 +19°C° 0 mm 0 mps 683 mmHg 95%
    23:00 +18°C° 0 mm 0 mps 683 mmHg 95%

    Tomorrow, 19 June, Wednesday

    Time Temperature Precipitation Wind Pressure Humidity
    00:00 +18°C° 0 mm 0 mps 683 mmHg 95%
    01:00 +18°C° 0 mm 0 mps 683 mmHg 95%
    02:00 +18°C° 0 mm 0 mps 683 mmHg 95%
    03:00 +18°C° 0 mm 0 mps 682 mmHg 95%
    04:00 +17°C° 0 mm 0 mps 682 mmHg 96%
    05:00 +18°C° 0 mm 0 mps 682 mmHg 95%
    06:00 +18°C° 0 mm 0 mps 683 mmHg 94%
    07:00 +18°C° 0 mm 0 mps 683 mmHg 93%
    08:00 +20°C° 0 mm 0 mps 684 mmHg 85%
    09:00 +24°C° 0 mm 1 mps 685 mmHg 76%
    10:00 +27°C° 0 mm 1 mps 685 mmHg 67%
    11:00 +27°C° 0.2 mm 1 mps 685 mmHg 65%
    12:00 +28°C° 0.2 mm 1 mps 684 mmHg 63%
    13:00 +29°C° 0.2 mm 1 mps 684 mmHg 61%
    14:00 +28°C° 0.4 mm 1 mps 683 mmHg 68%
    15:00 +27°C° 0.4 mm 1 mps 682 mmHg 75%
    16:00 +26°C° 0.4 mm 1 mps 681 mmHg 82%
    17:00 +25°C° 0.4 mm 1 mps 681 mmHg 87%
    18:00 +23°C° 0.4 mm 1 mps 681 mmHg 91%
    19:00 +21°C° 0.4 mm 1 mps 681 mmHg 96%
    20:00 +19°C° 0.1 mm 0 mps 682 mmHg 96%
    21:00 +19°C° 0.1 mm 0 mps 682 mmHg 97%
    22:00 +18°C° 0.1 mm 0 mps 683 mmHg 97%
    23:00 +18°C° 0.1 mm 0 mps 683 mmHg 97%

    Day after tomorrow, 20 June, Thursday

    Time Temperature Precipitation Wind Pressure Humidity
    00:00 +18°C° 0.1 mm 0 mps 683 mmHg 97%
    01:00 +18°C° 0.1 mm 0 mps 683 mmHg 97%
    02:00 +18°C° 0 mm 0 mps 683 mmHg 97%
    03:00 +17°C° 0 mm 0 mps 683 mmHg 97%
    04:00 +17°C° 0 mm 0 mps 682 mmHg 97%
    05:00 +18°C° 0 mm 0 mps 683 mmHg 97%
    06:00 +18°C° 0 mm 0 mps 683 mmHg 96%
    07:00 +18°C° 0 mm 0 mps 684 mmHg 96%
    08:00 +22°C° 0.2 mm 1 mps 685 mmHg 88%
    09:00 +24°C° 0.2 mm 1 mps 685 mmHg 80%
    10:00 +26°C° 0.2 mm 1 mps 686 mmHg 72%
    11:00 +28°C° 0.1 mm 1 mps 685 mmHg 62%
    12:00 +29°C° 0.1 mm 2 mps 685 mmHg 53%
    13:00 +30°C° 0.1 mm 2 mps 685 mmHg 44%
    14:00 +30°C° 0.1 mm 2 mps 684 mmHg 47%
    15:00 +29°C° 0.1 mm 2 mps 683 mmHg 50%
    16:00 +29°C° 0.1 mm 2 mps 683 mmHg 53%
    17:00 +26°C° 0.1 mm 2 mps 683 mmHg 64%
    18:00 +24°C° 0.1 mm 1 mps 683 mmHg 75%
    19:00 +22°C° 0.1 mm 1 mps 683 mmHg 86%
    20:00 +21°C° 0 mm 1 mps 683 mmHg 87%
    21:00 +21°C° 0 mm 1 mps 684 mmHg 88%
    22:00 +20°C° 0 mm 1 mps 684 mmHg 89%
    23:00 +20°C° 0 mm 1 mps 684 mmHg 89%

    21 June, Friday

    Time Temperature Precipitation Wind Pressure Humidity
    00:00 +20°C° 0 mm 1 mps 684 mmHg 90%
    01:00 +20°C° 0 mm 1 mps 684 mmHg 90%
    02:00 +19°C° 0 mm 1 mps 684 mmHg 91%
    03:00 +19°C° 0 mm 1 mps 684 mmHg 91%
    04:00 +19°C° 0 mm 1 mps 683 mmHg 92%
    05:00 +17°C° 0 mm 0 mps 684 mmHg 91%
    06:00 +17°C° 0 mm 0 mps 684 mmHg 91%
    07:00 +18°C° 0 mm 0 mps 685 mmHg 90%
    08:00 +22°C° 0.1 mm 1 mps 686 mmHg 81%
    09:00 +24°C° 0.1 mm 1 mps 686 mmHg 72%
    10:00 +27°C° 0.1 mm 1 mps 687 mmHg 62%
    11:00 +28°C° 0.1 mm 1 mps 686 mmHg 57%
    12:00 +29°C° 0.1 mm 2 mps 686 mmHg 51%
    13:00 +30°C° 0.1 mm 2 mps 685 mmHg 45%
    14:00 +29°C° 0 mm 2 mps 684 mmHg 47%
    15:00 +29°C° 0 mm 2 mps 684 mmHg 48%
    16:00 +28°C° 0 mm 2 mps 683 mmHg 50%
    17:00 +26°C° 0 mm 2 mps 683 mmHg 61%
    18:00 +24°C° 0 mm 1 mps 683 mmHg 72%
    19:00 +21°C° 0 mm 1 mps 683 mmHg 83%
    20:00 +21°C° 0 mm 1 mps 683 mmHg 84%
    21:00 +20°C° 0 mm 1 mps 684 mmHg 85%
    22:00 +20°C° 0 mm 1 mps 684 mmHg 87%
    23:00 +18°C° 0 mm 0 mps 684 mmHg 86%

    22 June, Saturday

    Time Temperature Precipitation Wind Pressure Humidity
    00:00 +18°C° 0 mm 0 mps 684 mmHg 86%
    01:00 +18°C° 0 mm 0 mps 684 mmHg 86%
    02:00 +18°C° 0 mm 0 mps 684 mmHg 88%
    03:00 +17°C° 0 mm 0 mps 684 mmHg 90%
    04:00 +17°C° 0 mm 0 mps 683 mmHg 92%
    05:00 +17°C° 0 mm 0 mps 684 mmHg 91%
    06:00 +18°C° 0 mm 0 mps 684 mmHg 90%
    07:00 +18°C° 0 mm 0 mps 685 mmHg 88%
    08:00 +19°C° 0 mm 0 mps 685 mmHg 84%
    09:00 +21°C° 0 mm 0 mps 686 mmHg 79%
    10:00 +22°C° 0 mm 0 mps 686 mmHg 74%
    11:00 +25°C° 0 mm 1 mps 686 mmHg 71%
    12:00 +25°C° 0 mm 1 mps 685 mmHg 68%
    13:00 +26°C° 0 mm 1 mps 685 mmHg 65%
    14:00 +26°C° 0 mm 1 mps 684 mmHg 66%
    15:00 +23°C° 0 mm 0 mps 683 mmHg 67%
    16:00 +23°C° 0 mm 0 mps 682 mmHg 69%
    17:00 +22°C° 0 mm 0 mps 683 mmHg 75%
    18:00 +21°C° 0 mm 0 mps 683 mmHg 81%
    19:00 +19°C° 0 mm 0 mps 683 mmHg 87%
    20:00 +20°C° 0 mm 0 mps 683 mmHg 85%
    21:00 +20°C° 0 mm 0 mps 684 mmHg 84%
    22:00 +20°C° 0 mm 0 mps 684 mmHg 83%
    23:00 +20°C° 0 mm 0 mps 684 mmHg 83%

    23 June, Sunday

    Time Temperature Precipitation Wind Pressure Humidity
    00:00 +20°C° 0 mm 0 mps 684 mmHg 83%
    01:00 +20°C° 0 mm 0 mps 684 mmHg 83%
    02:00 +19°C° 0 mm 0 mps 684 mmHg 84%
    03:00 +19°C° 0 mm 0 mps 684 mmHg 85%
    04:00 +19°C° 0 mm 0 mps 683 mmHg 87%
    05:00 +19°C° 0 mm 0 mps 684 mmHg 87%
    06:00 +19°C° 0 mm 0 mps 684 mmHg 87%
    07:00 +19°C° 0 mm 0 mps 685 mmHg 86%
    08:00 +20°C° 0 mm 0 mps 685 mmHg 85%
    09:00 +20°C° 0 mm 0 mps 686 mmHg 84%
    10:00 +21°C° 0 mm 0 mps 686 mmHg 82%
    11:00 +21°C° 0.1 mm 0 mps 686 mmHg 83%
    12:00 +21°C° 0.1 mm 0 mps 685 mmHg 84%
    13:00 +21°C° 0.1 mm 0 mps 685 mmHg 84%
    14:00 +21°C° 0 mm 0 mps 684 mmHg 84%
    15:00 +21°C° 0 mm 0 mps 683 mmHg 84%
    16:00 +21°C° 0 mm 0 mps 682 mmHg 83%
    17:00 +20°C° 0 mm 0 mps 682 mmHg 85%
    18:00 +20°C° 0 mm 0 mps 682 mmHg 86%
    19:00 +19°C° 0 mm 0 mps 682 mmHg 87%
    20:00 +19°C° 0 mm 0 mps 683 mmHg 85%
    21:00 +19°C° 0 mm 0 mps 683 mmHg 82%
    22:00 +18°C° 0 mm 0 mps 683 mmHg 80%
    23:00 +19°C° 0 mm 0 mps 683 mmHg 78%
    Show more